Regional Weather Roundup
Issued by NWS Jackson, KY

Home | Current Version | Previous Version | Text Only | Print | Product List | Glossary Off
Versions: 1 2 3 4 5 6 7 8 9 10 11 12 13 14 15 16 17 18 19 20 21 22 23 24 25 26 27 28

000
ASUS43 KJKL 180510
RWRJKL

EAST KENTUCKY HOURLY WEATHER ROUNDUP
NATIONAL WEATHER SERVICE JACKSON KY
100 AM EDT MON JUN 18 2018

NOTE: "FAIR" INDICATES FEW OR NO CLOUDS BELOW 12,000 FEET WITH
NO SIGNIFICANT WEATHER AND/OR OBSTRUCTIONS TO VISIBILITY.

* THESE REPORTS ARE NOT UNDER NWS QUALITY CONTROL AND MAY NOT
  REPORT WEATHER SUCH AS PRECIPITATION AND FOG.

KYZ079-080-083-085-087-088-110-112-115-119-120-180600
...EASTERN KENTUCKY...

CITY           SKY/WX    TMP DP  RH WIND       PRES   REMARKS
JACKSON          N/A     78  68  71 CALM      30.15R
LONDON           N/A     76  71  85 CALM      30.15R
SOMERSET*        N/A     73  68  83 CALM      30.15R
MONTICELLO*      N/A     70  69  97 N12         N/A
WILLIAMSBURG*    N/A     72  72 100 CALM      30.16R
MIDDLESBORO*     N/A     71  69  96 CALM      30.16R
HARLAN APT*      N/A     70  69  96 CALM      30.18R
PIKE CO APT*     N/A     76  70  81 CALM      30.15S
BIG SANDY APT*   N/A     75  74  97 CALM      30.14S
MOREHEAD APT*    N/A     75  72  88 CALM      30.14R
ASHLAND*         N/A     73  71  93 CALM      30.11R
$$

KYZ035-036-041-042-044-050-067-078-099-180600
...CENTRAL KENTUCKY...

CITY           SKY/WX    TMP DP  RH WIND       PRES   REMARKS
MT STERLING*     N/A     72  70  94 SW3       30.14R
FLEMING/MASON*   N/A     78  70  76 CALM      30.12S
DANVILLE*        N/A     72  68  88 S5        30.14R
LEXINGTON        N/A     78  70  76 S3        30.12R
FRANKFORT        N/A     78  70  76 CALM      30.10R
LOUISVILLE       N/A     84  72  67 S3        30.08R
LEBANON*         N/A     77  72  83 CALM      30.12R
GLASGOW*         N/A     76  71  83 CALM      30.11S
BOWLING GREEN    N/A     79  71  76 SW3       30.10S
$$

KYZ091>093-OHZ055-061-077-WVZ005-015-034-035-042-180600
...SOUTHERN OHIO/WEST VIRGINIA...

CITY           SKY/WX    TMP DP  RH WIND       PRES   REMARKS
COVINGTON      MOCLDY    76  70  82 SW3       30.09R
COLUMBUS       MOCLDY    78  69  73 S3        30.08R
DAYTON         MOCLDY    79  75  87 SW7       30.10R
WILMINGTON       N/A     76  73  91 CALM      30.10R
HUNTINGTON       N/A     75  69  81 CALM      30.11R
CHARLESTON       N/A     71  68  90 CALM      30.12R
PINEVILLE*       N/A     69  68  95 MISG      30.22S FOG
BECKLEY          N/A     69  65  86 CALM      30.21S
BLUEFIELD        N/A     70  64  81 W3        30.24S
LOGAN CO APT*    N/A     75  70  83 CALM      30.16R
$$

VAZ002-007-008-TNZ017-027-036-066-071-180600
...SOUTHWEST VIRGINIA/EAST TENNESSEE...

CITY           SKY/WX    TMP DP  RH WIND       PRES   REMARKS
WISE*            N/A     70  64  83 SW5       30.25R
JONESVILLE*      N/A     72  68  88 CALM      30.19S
ABINGDON*        N/A     73  68  84 CALM      30.21R
BRISTOL          N/A     72  69  90 CALM      30.17S
MORRISTOWN*    PTCLDY    72  66  83 S3        30.16R
SEVIERVILLE*   PTCLDY    68  64  88 CALM      30.15S
KNOXVILLE        N/A     73  65  75 SW7       30.13S
LAFOLLETTE*    CLEAR     70  68  94 CALM      30.18S
OAK RIDGE        N/A     74  71  91 CALM      30.16R
CROSSVILLE       N/A     71  66  84 CALM      30.20S
$$

...KEY TO REMARKS...
VSB - VISIBILITY IN MILES
WCI - WIND CHILL INDEX
HX  - HEAT INDEX

$$




USA.gov is the U.S. government's official web portal to all federal, state and local government web resources and services.